NOAA 16 DEB, 42410

Orbit data source: Space-Track

NOAA 16 DEB, 42410 is space debris in SSO originally from a launch on Thu, 21 Sep 2000 UTC launched from the Air Force Western Test Range (AFWTR). Debris objects in space refer to the collection of defunct objects orbiting the Earth. Examples of debris include non-operational satellites, rocket bodies, and fragments generated from explosions, collisions, or faulty payload assembly.

Loading next visibility...
Identifier
42410, 2000-055TE
Orbit
SSO
Country
Flag of USUS
Related business
Manufacturer
Unknown
Mission
Spacecraft
Bus & Motor
Unknown
Mass
Unknown
Launch date (UTC)
2000-09-21 (25 years ago)
Launch vehicle
Unknown
Launch site
Air Force Western Test Range (AFWTR)
Object type
Payload
Rocket body
Debris
Shape & HBR
Unknown shape, 0.1 m
Radar Cross Section
Small (<0.1 m²)

Expand to show TLE details & history
Last TLE update: 20 hours ago

TLE from 20 hours ago
0 NOAA 16 DEB
1 42410U 00055TE  25348.85304651  .00006962  00000-0  17456-2 0  9993
2 42410  98.8166 127.1839 0030566 288.4597  71.3275 14.51407470509984
Epoch: 2025-12-14T20:28Z
TLE epoch observation values (Epoch: 2025-12-14T20:28:23.218Z)
Latitude
-0.00001°
Longitude
96.32715°
Altitude
717.12 km
Speed
7.501 km/s
True Right ascension
08h 28m 44s
True Declination
0° 00' 00"
Sunlit
Object was in full shadow at epoch
Visualization orbit readout
Latitude
Unknown
Longitude
Unknown
Altitude
Unknown
Speed
Unknown
Apparent Right ascension
Unknown
Apparent Declination
Unknown
Sunlit
N/A
Visualization observer readout
Local Sidereal Time
14:51:08
Azimuth
Unknown
Elevation
Unknown
Doppler factor
Unknown
Orbital elements
Apogee altitude
739.868 km
Perigee altitude
696.487 km
Semi-major axis
7,096.314 km
Eccentricity
0.00306
Inclination
98.8166°
RAAN
127.1839°
Arg. of periapsis
288.4597°
True anomaly
71.65973°
Mean anomaly
71.3275°
Eccentric anomaly
71.49357°
Mean motion
3.63073 °/min
Orbital period
99.15 mins
BSTAR
0.0017456
Loading maneuver chart data...
Computing Atmospheric mass density...
Loading historical data...
Loading historical data...
Loading historical data...
Loading historical data...
Loading historical data...
Loading historical data...
Loading historical data...

Documentation

Showing up to 5 results
|